Miscellaneous Local Product
Issued by NWS Hastings, NE

Home | Current Version | Previous Version | Graphics & Text | Print | Product List | Glossary On
Versions: 1 2 3 4 5 6 7 8 9 10 11 12 13 14 15 16 17 18 19 20 21 22 23 24 25 26 27 28 29 30 31 32 33 34 35 36 37 38 39 40 41 42 43 44 45 46 47 48 49 50
698
AXUS43 KGID 261502
MISGRI

GID CWA HOURLY WEATHER ROUNDUP
NATIONAL WEATHER SERVICE HASTINGS NE
1000 AM CDT WED APR 26 2017

NOTE: "FAIR" INDICATES FEW OR NO CLOUDS BELOW 12,000 FEET WITH NO
SIGNIFICANT WEATHER AND/OR OBSTRUCTIONS TO VISIBILITY.

...SOUTH CENTRAL NEBRASKA...

CITY           SKY/WX    TMP DP  RH WIND       PRES   REMARKS
GRAND ISLAND   CLOUDY    37  30  75 NW21      29.74R WCI  26
HASTINGS       CLOUDY    38  29  70 NW24      29.74S WCI  27
KEARNEY        CLOUDY    37  27  65 N17G26    29.75R WCI  28
ORD            CLOUDY    35  28  75 NW23G29   29.73F WCI  23
YORK           CLOUDY    37  32  81 NW21      29.71R WCI  27
AURORA         CLOUDY    37  31  79 N22       29.72S WCI  27
LEXINGTON      CLOUDY    37  29  74 N20G29    29.77S WCI  26
HOLDREGE       CLOUDY    38  29  70 N21G28    29.76R WCI  27
HEBRON         CLOUDY    39  30  69 N15G23    29.73S WCI  31

...NEBRASKA PANHANDLE...

CITY           SKY/WX    TMP DP  RH WIND       PRES   REMARKS
CHADRON        CLOUDY    30  26  85 NE5       29.87F WCI  25
ALLIANCE       CLOUDY    30  26  85 N14       29.83S WCI  19
SCOTTSBLUFF    MOSUNNY   36  27  69 NW5       29.84S WCI  32
SIDNEY         MOSUNNY   37  28  70 N15       29.82F WCI  28

...WESTERN AND NORTH CENTRAL NEBRASKA...

CITY           SKY/WX    TMP DP  RH WIND       PRES   REMARKS
VALENTINE      CLOUDY    34  26  72 NW20G32   29.80F WCI  23
AINSWORTH      CLOUDY    33  29  86 NW25G32   29.77F WCI  19
ONEILL         CLOUDY    34  29  83 NW22G29   29.74F WCI  22
BROKEN BOW     CLOUDY    36  28  73 NW25G37   29.75S WCI  24
IMPERIAL       CLOUDY    34  26  72 N18       29.82S WCI  23
NORTH PLATTE   CLOUDY    35  27  72 NW17G30   29.80F WCI  25
MCCOOK         CLOUDY    38  28  67 NW22G28   29.80S WCI  27

...EASTERN NEBRASKA...

CITY           SKY/WX    TMP DP  RH WIND       PRES   REMARKS
NORFOLK        CLOUDY    36  29  75 NW20G32   29.66F WCI  25
SO SIOUX CITY  CLOUDY    37  33  85 NW23G31   29.64F WCI  26
TEKAMAH        CLOUDY    38  32  79 NW22      29.67R WCI  27
COLUMBUS       CLOUDY    37  28  70 NW24G37   29.70S WCI  26
ALBION         CLOUDY    37  31  78 NW21G31   29.70F WCI  26
OMAHA EPPLEY   CLOUDY    39  33  79 NW17G28   29.65F WCI  30
OFFUTT AFB     CLOUDY    39  32  77 NW15G25   29.64F WCI  30
MILLARD        CLOUDY    40  33  76 NW16G24   29.67F WCI  32
LINCOLN        CLOUDY    40  30  67 N17G25    29.71S WCI  31
NEBRASKA CITY  CLOUDY    39  30  70 NW16      29.68R WCI  30
BEATRICE       CLOUDY    38  34  82 NW15      29.71R WCI  30
FALLS CITY     CLOUDY    42  34  73 NW20      29.65S

...NORTHERN KANSAS...

CITY           SKY/WX    TMP DP  RH WIND       PRES   REMARKS
GOODLAND       CLOUDY    37  27  67 N24G31    29.79F WCI  26
HILL CITY      PTSUNNY   40  27  59 NW23      29.78F WCI  30
NORTON         MOSUNNY   39  23  52 NW20G29   29.76F WCI  30
PHILLIPSBURG   PTSUNNY   43  30  61 NW16      29.77S
SMITH CENTER   CLOUDY    39  28  65 NW20G25   29.76S WCI  30
HAYS           CLOUDY    39  28  64 NW20      29.76F WCI  29
RUSSELL        CLOUDY    42  30  62 N23       29.73F
CONCORDIA      CLOUDY    40  32  73 NW16      29.72F WCI  31
SALINA         CLOUDY    43  33  68 NW21      29.72S
TOPEKA         CLOUDY    43  37  79 NW13      29.65S



USA.gov is the U.S. government's official web portal to all federal, state and local government web resources and services.